This is the latest recevied weather packets stored in our database for station/object OK2ZAW-23. If no packets are shown the sender has not sent any weather packets the latest 10 day(s).
| Time | Temp. | Humidity | Pressure | Rain* | Wind** | Luminosity | Snow |
|---|---|---|---|---|---|---|---|
| 1777565308 | 20.56° C | 20% | 1024.5 hPa | - | - | 335 W/m² | - |
| 1777564680 | 18.89° C | 20% | 1024.6 hPa | - | - | 335 W/m² | - |
| 1777564366 | 17.78° C | 21% | 1024.6 hPa | - | - | 335 W/m² | - |
| 1777563737 | 19.44° C | 20% | 1024.7 hPa | - | - | 336 W/m² | - |
| 1777563424 | 18.33° C | 20% | 1024.6 hPa | - | - | 335 W/m² | - |
| 1777562795 | 18.33° C | 20% | 1024.5 hPa | - | - | 336 W/m² | - |
| 1777562167 | 18.33° C | 20% | 1024.7 hPa | - | - | 335 W/m² | - |
| 1777561854 | 18.89° C | 20% | 1024.7 hPa | - | - | 335 W/m² | - |
| 1777561539 | 19.44° C | 20% | 1024.6 hPa | - | - | 335 W/m² | - |
| 1777561225 | 18.89° C | 21% | 1024.7 hPa | - | - | 336 W/m² | - |
| 1777560597 | 17.22° C | 22% | 1024.9 hPa | - | - | 336 W/m² | - |
| 1777560283 | 17.78° C | 21% | 1024.9 hPa | - | - | 335 W/m² | - |
| 1777559655 | 16.67° C | 22% | 1024.9 hPa | - | - | 335 W/m² | - |
| 1777558086 | 16.67° C | 23% | 1025.1 hPa | - | - | 336 W/m² | - |
| 1777557459 | 16.11° C | 23% | 1025.2 hPa | - | - | 335 W/m² | - |
| 1777556516 | 16.11° C | 24% | 1025.3 hPa | - | - | 335 W/m² | - |
| 1777555889 | 14.44° C | 25% | 1025.6 hPa | - | - | 335 W/m² | - |
| 1777554636 | 12.78° C | 27% | 1025.7 hPa | - | - | 335 W/m² | - |
| 1777554321 | 12.22° C | 28% | 1025.9 hPa | - | - | 335 W/m² | - |
| 1777554008 | 12.22° C | 29% | 1025.8 hPa | - | - | 335 W/m² | - |
| 1777553695 | 11.67° C | 29% | 1025.9 hPa | - | - | 335 W/m² | - |
| 1777553381 | 11.67° C | 29% | 1025.9 hPa | - | - | 335 W/m² | - |
| 1777552754 | 11.67° C | 30% | 1026.1 hPa | - | - | 335 W/m² | - |
| 1777552441 | 11.11° C | 29% | 1026.2 hPa | - | - | 335 W/m² | - |
| 1777552128 | 11.11° C | 30% | 1026.2 hPa | - | - | 335 W/m² | - |
* Rain since midnight (hover to see other rain measurements)
** Current wind speed in m/s (hover to see current wind gust speed)